LHA1017 EDFH-EDDH

Flight info

Callsign LHA1017
Flight time 0h 54m
Altitude 38000
Route ULKIG Z100 RUDUS L984 BOMBI Z728 MASEK DCT ELNAT P605 NOLGO
Aircraft A320/M-SDE1E2FGIJ1RWYZE3/LB1

Departure

Time 2026-05-03 21:36
Airport Frankfurt-Hahn Airport (EDFH)

Arrival

Time 2026-05-03 22:30
Airport Hamburg Helmut Schmidt Airport (EDDH)
Time Latitude Longitude Altitude Speed Heading
2026-05-03 20:59 49.94704 7.26936 1616 ft 0 kts 32°
2026-05-03 21:27 49.94690 7.26923 1618 ft 4 kts 32°
2026-05-03 21:27 49.94672 7.26902 1616 ft 4 kts 57°
2026-05-03 21:28 49.94669 7.26870 1616 ft 4 kts 123°
2026-05-03 21:28 49.94686 7.26838 1623 ft 4 kts 127°
2026-05-03 21:28 49.94700 7.26805 1617 ft 4 kts 123°
2026-05-03 21:28 49.94714 7.26773 1620 ft 4 kts 121°
2026-05-03 21:29 49.94720 7.26737 1617 ft 4 kts 69°
2026-05-03 21:29 49.94705 7.26705 1618 ft 4 kts 37°
2026-05-03 21:29 49.94698 7.26698 1618 ft 0 kts 32°
2026-05-03 21:32 49.94708 7.26707 1618 ft 3 kts 32°
2026-05-03 21:33 49.94726 7.26725 1623 ft 3 kts 32°
2026-05-03 21:33 49.94762 7.26760 1620 ft 8 kts 32°
2026-05-03 21:33 49.94804 7.26801 1618 ft 6 kts 32°
2026-05-03 21:33 49.94837 7.26833 1617 ft 6 kts 32°
2026-05-03 21:34 49.94888 7.26858 1621 ft 11 kts 351°
2026-05-03 21:34 49.94933 7.26790 1618 ft 8 kts 304°
2026-05-03 21:34 49.94994 7.26732 1618 ft 14 kts 349°
2026-05-03 21:34 49.95103 7.26707 1612 ft 17 kts 333°
2026-05-03 21:35 49.95068 7.26587 1612 ft 27 kts 215°
2026-05-03 21:35 49.94679 7.26201 1622 ft 102 kts 212°
2026-05-03 21:35 49.93908 7.25452 1651 ft 155 kts 212°
2026-05-03 21:35 49.93007 7.24584 2237 ft 153 kts 213°
2026-05-03 21:36 49.92109 7.23680 2920 ft 153 kts 210°
2026-05-03 21:36 49.91198 7.22808 3503 ft 157 kts 213°
2026-05-03 21:36 49.90225 7.21876 3904 ft 172 kts 207°
2026-05-03 21:36 49.89114 7.20991 4323 ft 188 kts 211°
2026-05-03 21:37 49.87984 7.19789 4676 ft 208 kts 218°
2026-05-03 21:37 49.86778 7.18308 5032 ft 232 kts 222°
2026-05-03 21:37 49.85700 7.16405 5831 ft 239 kts 240°
2026-05-03 21:37 49.85248 7.13937 6705 ft 244 kts 270°
2026-05-03 21:38 49.85796 7.11428 7540 ft 256 kts 305°
2026-05-03 21:38 49.87259 7.09811 8354 ft 269 kts 341°
2026-05-03 21:38 49.89141 7.09625 9178 ft 278 kts 11°
2026-05-03 21:38 49.90905 7.10848 9992 ft 282 kts 37°
2026-05-03 21:39 49.92335 7.13017 10521 ft 298 kts 55°
2026-05-03 21:39 49.93421 7.15867 10905 ft 318 kts 64°
2026-05-03 21:39 49.94195 7.19200 11177 ft 340 kts 79°
2026-05-03 21:39 49.94357 7.22944 11542 ft 355 kts 97°
2026-05-03 21:40 49.93892 7.26723 12215 ft 360 kts 105°
2026-05-03 21:40 49.93321 7.30537 12972 ft 364 kts 105°
2026-05-03 21:40 49.92738 7.34382 13685 ft 368 kts 105°
2026-05-03 21:40 49.92146 7.38270 14375 ft 372 kts 105°
2026-05-03 21:41 49.91549 7.42193 15046 ft 376 kts 105°
2026-05-03 21:41 49.90946 7.46159 15695 ft 380 kts 105°
2026-05-03 21:41 49.90334 7.50166 16329 ft 384 kts 105°
2026-05-03 21:41 49.89712 7.54213 16939 ft 387 kts 105°
2026-05-03 21:42 49.89080 7.58297 17544 ft 391 kts 105°
2026-05-03 21:42 49.88447 7.62424 18143 ft 396 kts 104°
2026-05-03 21:42 49.88117 7.66680 18709 ft 402 kts 92°
2026-05-03 21:42 49.88359 7.71021 19300 ft 407 kts 80°
2026-05-03 21:43 49.89186 7.75237 19866 ft 411 kts 67°
2026-05-03 21:43 49.90574 7.79123 20420 ft 414 kts 55°
2026-05-03 21:43 49.92336 7.82705 20948 ft 419 kts 52°
2026-05-03 21:43 49.94124 7.86294 21485 ft 422 kts 52°
2026-05-03 21:44 49.95925 7.89922 22009 ft 425 kts 53°
2026-05-03 21:44 49.97736 7.93575 22505 ft 428 kts 53°
2026-05-03 21:44 49.99561 7.97267 22983 ft 432 kts 53°
2026-05-03 21:44 50.01387 8.00977 23457 ft 434 kts 54°
2026-05-03 21:45 50.02976 8.04985 23888 ft 436 kts 65°
2026-05-03 21:45 50.04101 8.09371 24302 ft 437 kts 75°
2026-05-03 21:45 50.04735 8.13996 24733 ft 438 kts 85°
2026-05-03 21:45 50.04903 8.18721 25130 ft 439 kts 91°
2026-05-03 21:46 50.04958 8.23475 25517 ft 441 kts 91°
2026-05-03 21:46 50.05015 8.28253 25903 ft 444 kts 91°
2026-05-03 21:46 50.05074 8.33074 26276 ft 446 kts 91°
2026-05-03 21:46 50.05128 8.37901 26637 ft 448 kts 91°
2026-05-03 21:47 50.05179 8.42770 26994 ft 450 kts 91°
2026-05-03 21:47 50.05225 8.47650 27341 ft 452 kts 91°
2026-05-03 21:47 50.05269 8.52539 27669 ft 454 kts 91°
2026-05-03 21:47 50.05313 8.57474 27988 ft 456 kts 91°
2026-05-03 21:48 50.05355 8.62423 28302 ft 458 kts 91°
2026-05-03 21:48 50.05421 8.67388 28602 ft 461 kts 88°
2026-05-03 21:48 50.05915 8.72328 28893 ft 465 kts 77°
2026-05-03 21:48 50.06991 8.77082 29166 ft 468 kts 66°
2026-05-03 21:49 50.08609 8.81505 29434 ft 471 kts 56°
2026-05-03 21:49 50.10694 8.85448 29689 ft 474 kts 45°
2026-05-03 21:49 50.13192 8.88806 29924 ft 476 kts 37°
2026-05-03 21:49 50.15844 8.91912 30164 ft 477 kts 37°
2026-05-03 21:50 50.18497 8.95020 30413 ft 477 kts 37°
2026-05-03 21:50 50.21146 8.98129 30724 ft 476 kts 37°
2026-05-03 21:50 50.23794 9.01242 31039 ft 475 kts 37°
2026-05-03 21:50 50.26435 9.04352 31350 ft 474 kts 37°
2026-05-03 21:51 50.29060 9.07452 31649 ft 474 kts 37°
2026-05-03 21:51 50.31690 9.10565 31956 ft 473 kts 37°
2026-05-03 21:51 50.34310 9.13673 32266 ft 472 kts 37°
2026-05-03 21:51 50.36924 9.16774 32575 ft 471 kts 37°
2026-05-03 21:52 50.39532 9.19865 32861 ft 470 kts 37°
2026-05-03 21:52 50.42145 9.22959 33147 ft 469 kts 37°
2026-05-03 21:52 50.44744 9.26040 33428 ft 469 kts 37°
2026-05-03 21:52 50.47347 9.29134 33709 ft 469 kts 37°
2026-05-03 21:53 50.49908 9.32186 33990 ft 468 kts 37°
2026-05-03 21:53 50.52496 9.35274 34267 ft 467 kts 38°
2026-05-03 21:53 50.55080 9.38363 34544 ft 466 kts 38°
2026-05-03 21:53 50.57663 9.41456 34808 ft 466 kts 38°
2026-05-03 21:54 50.60236 9.44543 34973 ft 466 kts 37°
2026-05-03 21:54 50.62811 9.47637 35013 ft 465 kts 37°
2026-05-03 21:54 50.67946 9.53817 34996 ft 464 kts 38°
2026-05-03 21:55 50.73518 9.58905 34999 ft 464 kts 20°
2026-05-03 21:55 50.79779 9.61160 34997 ft 463 kts
2026-05-03 21:56 50.86172 9.62386 35002 ft 463 kts
2026-05-03 21:56 50.92576 9.63630 34999 ft 464 kts
2026-05-03 21:57 50.98980 9.64884 35010 ft 464 kts
2026-05-03 21:57 51.05391 9.66137 35005 ft 464 kts
2026-05-03 21:58 51.11797 9.67403 35003 ft 464 kts
2026-05-03 21:58 51.18200 9.68661 35002 ft 464 kts
2026-05-03 21:59 51.24608 9.69866 35000 ft 464 kts
2026-05-03 21:59 51.31029 9.70879 34767 ft 464 kts
2026-05-03 22:00 51.34243 9.71361 34518 ft 464 kts
2026-05-03 22:00 51.37464 9.71853 34267 ft 465 kts
2026-05-03 22:00 51.40683 9.72358 34032 ft 465 kts
2026-05-03 22:00 51.43899 9.72882 33945 ft 465 kts
2026-05-03 22:01 51.50344 9.73989 33970 ft 465 kts
2026-05-03 22:01 51.56770 9.75212 33970 ft 465 kts
2026-05-03 22:02 51.63192 9.76469 33970 ft 465 kts
2026-05-03 22:02 51.69610 9.77701 33969 ft 465 kts
2026-05-03 22:03 51.74955 9.78712 33970 ft 465 kts
2026-05-03 22:03 51.81377 9.79928 33961 ft 464 kts
2026-05-03 22:04 51.87798 9.81155 33964 ft 464 kts
2026-05-03 22:04 51.94204 9.82391 33954 ft 464 kts
2026-05-03 22:05 52.00618 9.83641 33960 ft 464 kts
2026-05-03 22:05 52.07040 9.84891 33957 ft 464 kts
2026-05-03 22:06 52.13461 9.86139 33953 ft 464 kts
2026-05-03 22:06 52.19872 9.87386 33951 ft 464 kts
2026-05-03 22:07 52.26263 9.88930 33948 ft 465 kts 13°
2026-05-03 22:07 52.32517 9.91685 33934 ft 465 kts 14°
2026-05-03 22:08 52.35650 9.93068 33716 ft 466 kts 14°
2026-05-03 22:08 52.38754 9.94435 33185 ft 460 kts 14°
2026-05-03 22:08 52.41877 9.95808 31945 ft 470 kts 14°
2026-05-03 22:08 52.45068 9.97213 30686 ft 479 kts 14°
2026-05-03 22:09 52.48304 9.98642 29438 ft 485 kts 14°
2026-05-03 22:09 52.51542 10.00077 28796 ft 477 kts 14°
2026-05-03 22:09 52.54724 10.01489 28091 ft 471 kts 14°
2026-05-03 22:10 52.60975 10.04275 26682 ft 460 kts 14°
2026-05-03 22:10 52.64052 10.05653 26010 ft 455 kts 14°
2026-05-03 22:10 52.67087 10.07014 25336 ft 451 kts 14°
2026-05-03 22:10 52.70098 10.08363 24674 ft 446 kts 14°
2026-05-03 22:11 52.73076 10.09698 24017 ft 441 kts 14°
2026-05-03 22:11 52.76026 10.11008 23378 ft 437 kts 12°
2026-05-03 22:11 52.79004 10.11794 22741 ft 431 kts
2026-05-03 22:11 52.81981 10.11940 22177 ft 426 kts 359°
2026-05-03 22:12 52.84889 10.12027 21625 ft 421 kts 359°
2026-05-03 22:12 52.87837 10.12119 21088 ft 415 kts 359°
2026-05-03 22:12 52.90708 10.12211 20578 ft 411 kts 359°
2026-05-03 22:12 52.93518 10.12303 20074 ft 407 kts 359°
2026-05-03 22:13 52.96337 10.12394 19579 ft 403 kts 359°
2026-05-03 22:13 52.99134 10.12487 19091 ft 400 kts 359°
2026-05-03 22:13 53.01902 10.12578 18595 ft 396 kts 359°
2026-05-03 22:13 53.04640 10.12665 18241 ft 389 kts 359°
2026-05-03 22:14 53.07299 10.12752 18109 ft 373 kts 359°
2026-05-03 22:14 53.09844 10.12841 17878 ft 352 kts 359°
2026-05-03 22:14 53.12258 10.12929 17352 ft 345 kts 359°
2026-05-03 22:14 53.14605 10.13011 16814 ft 339 kts 359°
2026-05-03 22:15 53.16982 10.13089 16113 ft 336 kts 359°
2026-05-03 22:15 53.19327 10.13162 15633 ft 336 kts 359°
2026-05-03 22:15 53.21646 10.13235 15104 ft 331 kts 359°
2026-05-03 22:15 53.23944 10.13308 14420 ft 329 kts 359°
2026-05-03 22:16 53.26219 10.13380 13814 ft 324 kts 359°
2026-05-03 22:16 53.28461 10.13451 13351 ft 323 kts 359°
2026-05-03 22:16 53.30720 10.13531 12882 ft 326 kts 359°
2026-05-03 22:16 53.32936 10.13605 12407 ft 320 kts 359°
2026-05-03 22:17 53.35167 10.13675 11918 ft 322 kts 359°
2026-05-03 22:17 53.37385 10.13757 11429 ft 318 kts 359°
2026-05-03 22:17 53.39624 10.13824 11138 ft 313 kts 356°
2026-05-03 22:17 53.41731 10.13592 11012 ft 302 kts 353°
2026-05-03 22:18 53.43819 10.13330 10878 ft 291 kts 353°
2026-05-03 22:18 53.45790 10.13081 10722 ft 279 kts 352°
2026-05-03 22:18 53.47709 10.12835 10384 ft 274 kts 352°
2026-05-03 22:18 53.49607 10.12585 10079 ft 273 kts 352°
2026-05-03 22:19 53.51499 10.12338 9759 ft 272 kts 352°
2026-05-03 22:19 53.53384 10.12095 9455 ft 271 kts 352°
2026-05-03 22:19 53.55222 10.11858 9161 ft 270 kts 352°
2026-05-03 22:19 53.57144 10.12056 8848 ft 273 kts 12°
2026-05-03 22:20 53.58895 10.13280 8544 ft 275 kts 32°
2026-05-03 22:20 53.60323 10.15386 8242 ft 273 kts 51°
2026-05-03 22:20 53.61522 10.17815 7947 ft 273 kts 51°
2026-05-03 22:20 53.62737 10.20265 7563 ft 274 kts 50°
2026-05-03 22:21 53.63976 10.22754 7112 ft 279 kts 50°
2026-05-03 22:21 53.65225 10.25266 6662 ft 280 kts 50°
2026-05-03 22:21 53.66480 10.27791 6207 ft 282 kts 50°
2026-05-03 22:21 53.67757 10.30361 5750 ft 283 kts 50°
2026-05-03 22:22 53.68984 10.32842 5295 ft 275 kts 50°
2026-05-03 22:22 53.70197 10.35298 4852 ft 272 kts 49°
2026-05-03 22:22 53.71416 10.37764 4400 ft 274 kts 49°
2026-05-03 22:22 53.72608 10.40183 4247 ft 261 kts 49°
2026-05-03 22:23 53.73856 10.42349 4132 ft 247 kts 30°
2026-05-03 22:23 53.75394 10.43219 4017 ft 225 kts 355°
2026-05-03 22:23 53.76816 10.42612 3810 ft 209 kts 322°
2026-05-03 22:23 53.77716 10.40802 3506 ft 197 kts 285°
2026-05-03 22:24 53.77879 10.38537 3162 ft 195 kts 268°
2026-05-03 22:24 53.77812 10.36287 2993 ft 192 kts 265°
2026-05-03 22:24 53.77706 10.34013 2991 ft 195 kts 265°
2026-05-03 22:24 53.77590 10.31698 2991 ft 195 kts 264°
2026-05-03 22:25 53.77468 10.29434 2991 ft 196 kts 261°
2026-05-03 22:25 53.76979 10.27272 2992 ft 197 kts 236°
2026-05-03 22:25 53.76131 10.25492 3000 ft 197 kts 232°
2026-05-03 22:25 53.75254 10.23707 2995 ft 197 kts 232°
2026-05-03 22:26 53.74382 10.21926 2998 ft 195 kts 232°
2026-05-03 22:26 53.73534 10.20194 2969 ft 190 kts 232°
2026-05-03 22:26 53.72698 10.18485 2785 ft 187 kts 232°
2026-05-03 22:26 53.71879 10.16812 2590 ft 182 kts 232°
2026-05-03 22:27 53.71086 10.15195 2339 ft 174 kts 232°
2026-05-03 22:27 53.70324 10.13643 2105 ft 170 kts 231°
2026-05-03 22:27 53.69576 10.12114 1886 ft 168 kts 231°
2026-05-03 22:27 53.68871 10.10678 1687 ft 150 kts 231°
2026-05-03 22:28 53.68235 10.09384 1482 ft 140 kts 231°
2026-05-03 22:28 53.67622 10.08137 1304 ft 137 kts 230°
2026-05-03 22:28 53.67017 10.06905 1121 ft 136 kts 230°
2026-05-03 22:28 53.66412 10.05677 945 ft 136 kts 230°
2026-05-03 22:29 53.65811 10.04456 765 ft 135 kts 230°
2026-05-03 22:29 53.65220 10.03220 585 ft 135 kts 230°
2026-05-03 22:29 53.64620 10.02005 400 ft 135 kts 230°
2026-05-03 22:29 53.64015 10.00799 227 ft 135 kts 230°
2026-05-03 22:30 53.63400 9.99567 59 ft 134 kts 230°
2026-05-03 22:30 53.62931 9.98612 49 ft 69 kts 230°
2026-05-03 22:30 53.62762 9.98268 50 ft 31 kts 230°
2026-05-03 22:30 53.62607 9.97954 46 ft 36 kts 230°
2026-05-03 22:31 53.62467 9.97800 46 ft 21 kts 158°
2026-05-03 22:31 53.62431 9.97935 50 ft 0 kts 79°
2026-05-03 22:31 53.62437 9.97981 50 ft 11 kts 75°
2026-05-03 22:32 53.62475 9.98110 50 ft 12 kts 56°
2026-05-03 22:32 53.62523 9.98213 50 ft 10 kts 51°
2026-05-03 22:32 53.62575 9.98320 51 ft 12 kts 51°
2026-05-03 22:32 53.62625 9.98423 49 ft 11 kts 50°
2026-05-03 22:33 53.62679 9.98531 51 ft 16 kts 50°
2026-05-03 22:33 53.62756 9.98687 50 ft 18 kts 50°
2026-05-03 22:33 53.62840 9.98858 48 ft 20 kts 50°
2026-05-03 22:33 53.62923 9.99026 50 ft 17 kts 50°
2026-05-03 22:34 53.62972 9.99124 50 ft 12 kts 50°
2026-05-03 22:34 53.63023 9.99228 50 ft 11 kts 52°
2026-05-03 22:34 53.63067 9.99328 50 ft 12 kts 55°
2026-05-03 22:34 53.63129 9.99478 50 ft 16 kts 54°
2026-05-03 22:35 53.63196 9.99619 50 ft 11 kts 50°
2026-05-03 22:35 53.63244 9.99707 48 ft 9 kts 45°
2026-05-03 22:35 53.63297 9.99804 50 ft 13 kts 50°
2026-05-03 22:35 53.63352 9.99913 50 ft 12 kts 49°
2026-05-03 22:36 53.63402 10.00012 51 ft 10 kts 49°
2026-05-03 22:36 53.63429 10.00109 51 ft 9 kts 97°
2026-05-03 22:36 53.63401 10.00191 49 ft 8 kts 129°
2026-05-03 22:36 53.63339 10.00231 51 ft 10 kts 176°
2026-05-03 22:37 53.63273 10.00239 51 ft 9 kts 176°
2026-05-03 22:37 53.63188 10.00249 51 ft 15 kts 176°
2026-05-03 22:37 53.63114 10.00275 51 ft 8 kts 124°
2026-05-03 22:37 53.63112 10.00343 51 ft 3 kts 86°
2026-05-03 22:38 53.63112 10.00356 51 ft 1 kts 86°
2026-05-03 22:38 53.63112 10.00369 51 ft 1 kts 86°
2026-05-03 22:38 53.63113 10.00370 51 ft 0 kts 86°